Taunton, MA

2:51 AM EDT on April 25, 2017 (GMT -0400)
Taunton Municipal

Weather History for KTAN - February, 2014

Change the Weather History Date:

Friday, February 28, 2014

  Actual Average Record
Temperature  
Mean Temperature 16 °F -  
Max Temperature 26 °F 43 °F 67 °F (1976)
Min Temperature 6 °F 22 °F -9 °F (2015)
Degree Days  
Heating Degree Days 48    
Moisture  
Dew Point -6 °F    
Average Humidity 42    
Maximum Humidity 80    
Minimum Humidity 17    
Precipitation  
Precipitation 0.00 in - - ()
Sea Level Pressure  
Sea Level Pressure 30.26 in    
Wind  
Wind Speed 8 mph (WNW)    
Max Wind Speed 12 mph    
Max Gust Speed 23 mph    
Visibility 10 miles    
Events      
Averages and records for this station are not official NWS values.
T = Trace of Precipitation, MM = Missing Value Source: NWS Daily Summary

Daily Weather History Graph

Daily Weather History Graph

Search for Another Location

Airport or City:

Trip Planner

Search our weather history database for the weather conditions in past years. The results will help you decide how hot, cold, wet, or windy it might be!

Date:

Astronomy

Feb. 28, 2014 Rise Set
Actual Time 6:20 AM EST 5:33 PM EST
Civil Twilight 5:52 AM EST 6:01 PM EST
Nautical Twilight 5:20 AM EST 6:33 PM EST
Astronomical Twilight 4:48 AM EST 7:05 PM EST
Moon 5:33 AM EST (2/28) 5:06 PM EST (2/28)
Length of Visible Light 12h 08m
Length of Day
11h 12m
Waning Crescent, 1% of the Moon is Illuminated
Feb 28
Waning Crescent
Mar 1
New
Mar 8
First Quarter
Mar 16
Full
Mar 23
Last Quarter

Hourly Weather History & Observations

Time (EST) Temp. Windchill Dew Point Humidity Pressure Visibility Wind Dir Wind Speed Gust Speed Precip Events Conditions
12:52 AM 15.1 °F 1.8 °F -8.0 °F 36% 29.96 in 10.0 mi West 11.5 mph 23.0 mph N/A   Clear
1:52 AM 12.9 °F 0.7 °F -7.1 °F 41% 30.01 in 10.0 mi West 9.2 mph 18.4 mph N/A   Clear
2:52 AM 12.0 °F -2.0 °F -8.0 °F 41% 30.03 in 10.0 mi WNW 11.5 mph - N/A   Clear
3:52 AM 10.9 °F -1.8 °F -8.0 °F 42% 30.07 in 10.0 mi West 9.2 mph 21.9 mph N/A   Clear
4:52 AM 10.9 °F -2.6 °F -7.1 °F 44% 30.11 in 10.0 mi West 10.4 mph 21.9 mph N/A   Clear
5:52 AM 10.0 °F -0.9 °F -6.0 °F 48% 30.15 in 10.0 mi Variable 6.9 mph 16.1 mph N/A   Clear
6:52 AM 10.0 °F -1.9 °F -7.1 °F 46% 30.18 in 10.0 mi WNW 8.1 mph 17.3 mph N/A   Clear
7:52 AM 12.9 °F 1.6 °F -7.1 °F 41% 30.22 in 10.0 mi NW 8.1 mph - N/A   Clear
8:52 AM 16.0 °F 2.9 °F -7.1 °F 36% 30.25 in 10.0 mi NW 11.5 mph 18.4 mph N/A   Clear
9:52 AM 19.0 °F 9.0 °F -7.1 °F 31% 30.27 in 10.0 mi WNW 8.1 mph - N/A   Clear
10:52 AM 21.0 °F 9.3 °F -9.0 °F 26% 30.30 in 10.0 mi WNW 11.5 mph 18.4 mph N/A   Clear
11:52 AM 24.1 °F 15.2 °F -9.0 °F 23% 30.30 in 10.0 mi WNW 8.1 mph - N/A   Clear
12:52 PM 24.1 °F 16.0 °F -9.9 °F 22% 30.29 in 10.0 mi Variable 6.9 mph - N/A   Clear
1:52 PM 26.1 °F 16.2 °F -14.1 °F 17% 30.30 in 10.0 mi WNW 10.4 mph - N/A   Clear
2:52 PM 26.1 °F 19.4 °F -13.0 °F 18% 30.32 in 10.0 mi Variable 5.8 mph - N/A   Clear
3:52 PM 26.1 °F 17.6 °F -11.9 °F 19% 30.34 in 10.0 mi West 8.1 mph - N/A   Clear
4:52 PM 25.0 °F 16.3 °F -13.0 °F 18% 30.35 in 10.0 mi WNW 8.1 mph - N/A   Clear
5:52 PM 21.9 °F - -11.9 °F 22% 30.37 in 10.0 mi Calm Calm - N/A   Clear
6:52 PM 15.1 °F - 1.0 °F 54% 30.38 in 10.0 mi Calm Calm - N/A   Clear
7:52 PM 12.0 °F - 3.9 °F 70% 30.40 in 10.0 mi Calm Calm - N/A   Clear
8:52 PM 10.0 °F - 1.9 °F 70% 30.42 in 10.0 mi Calm Calm - N/A   Clear
9:52 PM 9.0 °F - 1.9 °F 73% 30.43 in 9.0 mi Calm Calm - N/A   Clear
10:52 PM 7.0 °F - 1.9 °F 80% 30.43 in 10.0 mi Calm Calm - N/A   Clear
11:52 PM 6.1 °F - 1.0 °F 80% 30.44 in 10.0 mi Calm Calm - N/A   Clear